DW3263 Weather Reports


time (UTC)temp
C
wind
direction
speed
KPH
gust
KPH
rain 1hr
cm
rain 24hr
cm
rain mn
cm
humidity
%
barometer
mb
20260902214520 24 158 3.2 9.7 0.00 4.55 1.32 100 1015.8
20260902213734 24 158 4.8 8.0 0.00 4.55 1.32 100 1015.9
20260902212944 24 158 3.2 9.7 0.00 4.55 1.32 100 1016.0
20260902211731 23 158 1.6 6.4 0.00 4.55 1.32 100 1016.1
20260902210521 23 158 3.2 6.4 0.00 4.55 1.32 100 1016.1
20260902205521 23 158 6.4 12.9 0.00 4.55 1.32 100 1016.1
20260902204734 23 158 3.2 8.0 0.00 4.55 1.32 100 1016.2
20260902203520 23 293 4.8 11.3 0.00 4.55 1.32 100 1016.2
20260902202520 23 293 4.8 8.0 0.00 4.55 1.32 100 1016.2
20260902201520 23 293 3.2 8.0 0.00 4.55 1.32 100 1016.0
20260902200733 22 293 4.8 9.7 0.00 4.55 1.32 100 1015.7
20260902195520 22 293 1.6 4.8 0.00 4.55 1.32 100 1016.0
20260902194943 22 293 6.4 12.9 0.00 4.55 1.32 100 1016.2
20260902193730 22 293 4.8 11.3 0.00 4.55 1.32 100 1016.5
20260902192518 22 293 4.8 8.0 0.00 4.55 1.32 100 1016.8
20260902191520 23 293 3.2 8.0 0.00 4.55 1.32 100 1016.8
20260902190733 22 293 1.6 8.0 0.00 4.55 1.32 100 1016.7
20260902185520 22 293 3.2 8.0 0.00 4.55 1.32 100 1016.5
20260902184520 21 293 1.6 8.0 0.00 4.55 1.32 100 1016.3
20260902183520 21 0.0 3.2 0.03 4.55 1.32 100 1016.3
20260902182520 21 293 3.2 6.4 0.03 4.55 1.32 100 1015.8
20260902181520 20 293 3.2 8.0 0.03 4.55 1.32 100 1016.2
20260902180520 20 293 3.2 6.4 0.05 4.55 1.32 100 1016.6
20260902175730 20 293 1.6 4.8 0.05 4.55 1.32 100 1016.7
20260902174520 20 0.0 3.2 0.08 4.55 1.32 100 1017.2
20260902173519 20 0.0 3.2 0.10 4.52 1.30 100 1017.3
20260902172733 20 0.0 3.2 0.15 4.52 1.30 100 1017.2
20260902171520 20 0.0 1.6 0.20 4.52 1.30 100 1017.3
20260902170730 20 0.0 3.2 0.20 4.50 1.27 100 1017.4
20260902165520 20 0.0 1.6 0.25 4.50 1.27 100 1017.9
20260902164520 20 0.0 3.2 0.30 4.47 1.24 100 1017.8
20260902163733 20 293 1.6 3.2 0.28 4.42 1.19 100 1018.0
20260902162518 21 0.0 1.6 0.69 4.37 1.14 100 1018.5
20260902161520 21 0.0 0.0 1.04 4.32 1.09 100 1018.8
20260902160519 21 0.0 3.2 1.04 4.29 1.07 100 1018.8
20260902155518 21 293 1.6 4.8 0.99 4.24 1.02 100 1018.9
20260902154518 20 293 4.8 12.9 0.91 4.17 0.94 100 1018.9
20260902153520 21 135 6.4 16.1 0.89 4.14 0.91 100 1019.1
20260902152942 21 315 11.3 22.5 0.43 3.68 0.46 100 1020.2
20260902151518 21 0.0 8.0 0.03 3.28 0.05 100 1018.0
20260902150520 21 90 3.2 11.3 0.00 3.25 0.03 100 1017.7
20260902145519 21 90 3.2 11.3 0.00 3.25 0.03 100 1017.2
20260902144519 21 90 8.0 12.9 0.00 3.25 0.03 100 1017.0
20260902143520 21 135 4.8 16.1 0.00 3.25 0.03 100 1017.1
20260902142519 21 90 6.4 11.3 0.00 3.25 0.03 100 1017.3
20260902141519 21 90 4.8 11.3 0.00 3.25 0.03 100 1017.4
20260902140731 21 90 6.4 12.9 0.00 3.38 0.03 100 1017.4
20260902135520 21 90 6.4 12.9 0.00 3.38 0.03 100 1017.4
20260902134519 21 90 4.8 11.3 0.00 3.38 0.03 100 1017.4
20260902133519 21 90 6.4 12.9 0.00 3.38 0.03 100 1017.2
20260902132518 21 90 6.4 12.9 0.00 3.38 0.03 100 1017.3
20260902131519 21 90 1.6 8.0 0.00 3.38 0.03 100 1017.5
20260902130519 21 90 3.2 8.0 0.00 3.38 0.03 100 1017.5
20260902125519 21 90 3.2 8.0 0.00 3.38 0.03 100 1017.4
20260902124520 21 90 4.8 9.7 0.00 3.38 0.03 100 1017.0
20260902123519 21 90 4.8 11.3 0.00 3.38 0.03 100 1016.9
20260902122518 20 90 1.6 4.8 0.00 3.38 0.03 100 1016.8
20260902121518 20 90 4.8 9.7 0.00 3.38 0.03 100 1016.5
20260902120519 20 90 3.2 11.3 0.00 3.38 0.03 100 1016.6
20260902115942 20 90 1.6 4.8 0.00 3.38 0.03 100 1016.7
20260902114730 20 90 3.2 9.7 0.00 3.38 0.03 100 1016.6
20260902113519 20 90 6.4 11.3 0.00 3.38 0.03 100 1016.6
20260902112732 20 90 4.8 11.3 0.00 3.38 0.03 100 1016.6
20260902111519 20 90 3.2 8.0 0.00 3.38 0.03 100 1016.5
20260902110519 20 90 3.2 8.0 0.00 3.38 0.03 100 1016.5
20260902105519 20 90 1.6 4.8 0.00 3.40 0.03 100 1016.6
20260902104519 20 90 1.6 8.0 0.00 3.40 0.03 100 1016.7
20260902103519 20 0.0 3.2 0.00 3.40 0.03 100 1016.8
20260902102519 20 90 1.6 4.8 0.00 3.40 0.03 100 1016.7
20260902101519 20 90 3.2 12.9 0.00 3.40 0.03 100 1016.8
20260902100519 19 90 4.8 11.3 0.00 3.40 0.03 100 1016.7
20260902095519 19 90 3.2 9.7 0.00 3.40 0.03 100 1016.7
20260902094519 19 90 1.6 4.8 0.00 3.40 0.03 100 1016.8
20260902093519 19 0.0 0.0 0.00 3.40 0.03 100 1016.7
20260902092519 19 0.0 0.0 0.00 3.40 0.03 100 1016.8
20260902091519 19 0.0 0.0 0.00 3.40 0.03 100 1016.4
20260902090730 19 0.0 0.0 0.00 3.40 0.03 100 1016.4
20260902085519 19 0.0 0.0 0.00 3.40 0.03 100 1016.4
20260902084518 19 0.0 0.0 0.00 3.40 0.03 100 1016.4
20260902083519 19 0.0 0.0 0.00 3.40 0.03 100 1016.4
20260902082728 19 0.0 0.0 0.00 3.40 0.03 100 1016.1
20260902081519 19 0.0 0.0 0.00 3.40 0.03 100 1016.1
20260902080837 19 0.0 0.0 0.00 3.40 0.03 100 1016.0
20260902074519 19 0.0 0.0 0.00 3.40 0.03 100 1016.0
20260902073519 19 0.0 0.0 0.00 3.40 0.03 100 1015.9
20260902072519 19 0.0 3.2 0.00 3.40 0.03 100 1015.9
20260902071519 20 0.0 0.0 0.03 3.40 0.03 100 1016.0
20260902070519 20 0.0 0.0 0.03 3.40 0.03 100 1016.0
20260902065732 20 0.0 0.0 0.03 3.40 0.03 100 1016.1
20260902064519 20 0.0 0.0 0.03 3.40 0.03 100 1016.1
20260902063519 20 0.0 0.0 0.03 3.40 0.03 100 1016.1
20260902062943 20 0.0 0.0 0.03 3.40 0.03 100 1016.1
20260902061519 20 0.0 0.0 0.00 3.38 0.00 100 1016.1
20260902060519 20 0.0 0.0 0.00 3.38 0.00 100 1016.0
20260902055733 20 0.0 0.0 0.00 3.38 0.00 100 1016.1
20260902054519 20 0.0 0.0 0.00 3.38 0.00 100 1016.1
20260902053519 20 0.0 0.0 0.00 3.38 0.00 100 1016.0
20260902052519 20 0.0 0.0 0.00 3.38 0.00 100 1016.1
20260902051519 20 0.0 0.0 0.00 3.38 0.00 100 1016.1
20260902050519 20 0.0 0.0 0.00 3.38 0.00 100 1016.1
20260902045519 20 0.0 1.6 0.00 3.38 0.00 100 1016.0
20260902044519 20 0.0 3.2 0.00 3.38 0.00 100 1015.7
20260902043519 20 0.0 1.6 0.00 3.38 0.00 100 1015.5
20260902042519 20 90 1.6 3.2 0.00 3.38 0.00 100 1015.5
20260902041519 20 90 1.6 4.8 0.03 3.38 0.00 100 1015.4
20260902040519 20 90 1.6 4.8 0.18 3.38 0.00 100 1015.4
20260902035520 20 0.0 1.6 0.84 3.38 3.38 100 1015.6
20260902034518 20 0.0 3.2 1.60 3.38 3.38 100 1015.3
20260902033520 20 0.0 3.2 2.92 3.38 3.38 100 1015.4
20260902032520 20 0.0 3.2 3.12 3.38 3.38 100 1015.4
20260902031518 20 90 1.6 8.0 3.10 3.35 3.35 100 1015.6
20260902030520 20 90 3.2 12.9 3.00 3.20 3.20 100 1016.5
20260902025521 21 68 6.4 17.7 2.34 2.54 2.54 100 1016.5
20260902024518 21 90 4.8 16.1 1.60 1.78 1.78 100 1016.5
20260902023519 21 90 1.6 8.0 0.30 0.46 0.46 100 1015.6
20260902022521 22 90 1.6 4.8 0.10 0.25 0.25 100 1014.7
20260902021733 22 0.0 1.6 0.10 0.25 0.25 100 1014.8
20260902020542 23 90 3.2 9.7 0.05 0.20 0.20 100 1014.6
20260902015521 24 68 1.6 11.3 0.05 0.20 0.20 100 1014.6
20260902014520 25 68 6.4 20.9 0.03 0.18 0.18 100 1014.6
20260902013519 25 68 6.4 14.5 0.00 0.15 0.15 100 1014.4
20260902012518 26 68 6.4 22.5 0.00 0.15 0.15 21 1014.0
20260902011520 26 68 9.7 27.4 0.00 0.15 0.15 8 1014.0
20260902010519 26 338 1.6 4.8 0.00 0.15 0.15 100 1013.9
20260902005518 26 0.0 0.0 0.00 0.15 0.15 100 1013.5
20260902004520 26 0.0 0.0 0.00 0.15 0.15 100 1013.3
20260902003519 27 0.0 0.0 0.00 0.15 0.15 100 1013.1
20260902002519 27 0.0 0.0 0.00 0.15 0.15 100 1012.8
20260902001729 27 0.0 0.0 0.00 0.15 0.15 100 1012.3
20260902000520 27 0.0 0.0 0.00 0.15 0.15 100 1012.2
20260901235519 28 0.0 0.0 0.00 0.15 0.15 100 1012.3
20260901234518 28 0.0 0.0 0.00 0.15 0.15 7 1012.0
20260901233946 29 0.0 0.0 0.00 0.15 0.15 23 1011.9
20260901232519 30 0.0 0.0 0.00 0.15 0.15 34 1012.0
20260901231519 30 0.0 0.0 0.00 0.15 0.15 44 1012.1
20260901230518 30 0.0 1.6 0.00 0.15 0.15 47 1012.0
20260901225520 31 0.0 1.6 0.00 0.15 0.15 45 1012.1
20260901224519 31 0.0 1.6 0.00 0.15 0.15 50 1012.2
20260901223519 31 293 1.6 4.8 0.00 0.15 0.15 58 1012.1
20260901222730 32 293 1.6 3.2 0.00 0.15 0.15 54 1012.2
20260901221519 32 293 1.6 4.8 0.00 0.15 0.15 56 1012.3
20260901220521 32 0.0 0.0 0.00 0.15 0.15 57 1012.0
20260901215519 32 0.0 0.0 0.00 0.15 0.15 56 1011.9